• In Portugal
  • List of Countries
  • For 7 days
  • Water Temperature
  • Satellite Maps
  • Weather Map
  • Weather Widgets
  • user-avatar
    Login

    Hourly Weather Meshhed

    Today, 26 September, Tuesday

    Time Temperature Precipitation Wind Pressure Humidity
    00:00 +16°C° 0 mm 2 mps 616 mmHg 24%
    01:00 +15°C° 0 mm 2 mps 616 mmHg 24%
    02:00 +15°C° 0 mm 2 mps 615 mmHg 25%
    03:00 +14°C° 0 mm 2 mps 615 mmHg 26%
    04:00 +14°C° 0 mm 2 mps 615 mmHg 29%
    05:00 +14°C° 0 mm 2 mps 615 mmHg 29%
    06:00 +15°C° 0 mm 2 mps 616 mmHg 30%
    07:00 +15°C° 0 mm 1 mps 616 mmHg 30%
    08:00 +16°C° 0 mm 1 mps 616 mmHg 28%
    09:00 +18°C° 0 mm 1 mps 617 mmHg 26%
    10:00 +20°C° 0 mm 1 mps 618 mmHg 26%
    11:00 +20°C° 0 mm 1 mps 618 mmHg 25%
    12:00 +20°C° 0 mm 2 mps 618 mmHg 24%
    13:00 +21°C° 0 mm 2 mps 618 mmHg 24%
    14:00 +21°C° 0 mm 2 mps 618 mmHg 24%
    15:00 +21°C° 0 mm 2 mps 617 mmHg 25%
    16:00 +21°C° 0 mm 2 mps 617 mmHg 25%
    17:00 +20°C° 0 mm 2 mps 617 mmHg 27%
    18:00 +20°C° 0 mm 2 mps 617 mmHg 29%
    19:00 +19°C° 0 mm 2 mps 617 mmHg 32%
    20:00 +18°C° 0 mm 2 mps 617 mmHg 34%
    21:00 +17°C° 0 mm 2 mps 617 mmHg 37%
    22:00 +16°C° 0 mm 2 mps 617 mmHg 40%
    23:00 +16°C° 0 mm 2 mps 616 mmHg 42%

    Tomorrow, 27 September, Wednesday

    Time Temperature Precipitation Wind Pressure Humidity
    00:00 +15°C° 0 mm 2 mps 616 mmHg 45%
    01:00 +14°C° 0 mm 2 mps 616 mmHg 48%
    02:00 +14°C° 0 mm 2 mps 616 mmHg 50%
    03:00 +13°C° 0 mm 1 mps 616 mmHg 53%
    04:00 +13°C° 0 mm 1 mps 616 mmHg 55%
    05:00 +13°C° 0 mm 1 mps 616 mmHg 54%
    06:00 +13°C° 0 mm 1 mps 616 mmHg 53%
    07:00 +13°C° 0 mm 1 mps 616 mmHg 52%
    08:00 +15°C° 0 mm 2 mps 617 mmHg 47%
    09:00 +16°C° 0 mm 2 mps 618 mmHg 41%
    10:00 +17°C° 0 mm 2 mps 618 mmHg 35%
    11:00 +18°C° 0 mm 2 mps 618 mmHg 33%
    12:00 +20°C° 0 mm 1 mps 618 mmHg 30%
    13:00 +22°C° 0 mm 1 mps 618 mmHg 27%
    14:00 +22°C° 0 mm 1 mps 618 mmHg 26%
    15:00 +21°C° 0 mm 2 mps 618 mmHg 26%
    16:00 +21°C° 0 mm 2 mps 617 mmHg 25%
    17:00 +21°C° 0 mm 2 mps 617 mmHg 26%
    18:00 +20°C° 0 mm 2 mps 617 mmHg 27%
    19:00 +19°C° 0 mm 3 mps 617 mmHg 28%
    20:00 +18°C° 0 mm 2 mps 616 mmHg 28%
    21:00 +17°C° 0 mm 2 mps 616 mmHg 29%
    22:00 +17°C° 0 mm 2 mps 616 mmHg 29%
    23:00 +16°C° 0 mm 2 mps 616 mmHg 30%

    Day after tomorrow, 28 September, Thursday

    Time Temperature Precipitation Wind Pressure Humidity
    00:00 +15°C° 0 mm 1 mps 615 mmHg 30%
    01:00 +15°C° 0 mm 1 mps 615 mmHg 31%
    02:00 +14°C° 0 mm 1 mps 614 mmHg 32%
    03:00 +14°C° 0 mm 1 mps 614 mmHg 33%
    04:00 +13°C° 0 mm 1 mps 614 mmHg 34%
    05:00 +14°C° 0 mm 1 mps 614 mmHg 33%
    06:00 +15°C° 0 mm 1 mps 614 mmHg 33%
    07:00 +15°C° 0 mm 1 mps 615 mmHg 32%
    08:00 +18°C° 0 mm 1 mps 616 mmHg 29%
    09:00 +18°C° 0 mm 0 mps 617 mmHg 26%
    10:00 +19°C° 0 mm 0 mps 617 mmHg 24%
    11:00 +22°C° 0 mm 1 mps 618 mmHg 22%
    12:00 +23°C° 0 mm 1 mps 618 mmHg 21%
    13:00 +24°C° 0 mm 2 mps 618 mmHg 20%
    14:00 +24°C° 0 mm 2 mps 617 mmHg 20%
    15:00 +24°C° 0 mm 3 mps 617 mmHg 20%
    16:00 +22°C° 0 mm 4 mps 617 mmHg 20%
    17:00 +21°C° 0 mm 5 mps 617 mmHg 21%
    18:00 +19°C° 0 mm 5 mps 616 mmHg 23%
    19:00 +16°C° 0 mm 5 mps 616 mmHg 24%
    20:00 +15°C° 0 mm 5 mps 616 mmHg 26%
    21:00 +15°C° 0 mm 5 mps 616 mmHg 27%
    22:00 +14°C° 0 mm 4 mps 616 mmHg 28%
    23:00 +13°C° 0 mm 4 mps 616 mmHg 30%

    29 September, Friday

    Time Temperature Precipitation Wind Pressure Humidity
    00:00 +12°C° 0 mm 4 mps 616 mmHg 31%
    01:00 +12°C° 0 mm 3 mps 616 mmHg 33%
    02:00 +11°C° 0 mm 3 mps 615 mmHg 35%
    03:00 +12°C° 0 mm 2 mps 615 mmHg 37%
    04:00 +10°C° 0 mm 2 mps 615 mmHg 39%
    05:00 +10°C° 0 mm 2 mps 615 mmHg 39%
    06:00 +10°C° 0 mm 2 mps 616 mmHg 39%
    07:00 +10°C° 0 mm 2 mps 616 mmHg 39%
    08:00 +13°C° 0 mm 2 mps 617 mmHg 37%
    09:00 +13°C° 0 mm 3 mps 617 mmHg 34%
    10:00 +14°C° 0 mm 3 mps 618 mmHg 32%
    11:00 +16°C° 0 mm 3 mps 618 mmHg 30%
    12:00 +17°C° 0 mm 3 mps 618 mmHg 29%
    13:00 +18°C° 0 mm 3 mps 618 mmHg 27%
    14:00 +18°C° 0 mm 4 mps 618 mmHg 28%
    15:00 +18°C° 0 mm 4 mps 618 mmHg 28%
    16:00 +17°C° 0 mm 5 mps 617 mmHg 29%
    17:00 +15°C° 0 mm 5 mps 617 mmHg 33%
    18:00 +14°C° 0 mm 6 mps 617 mmHg 37%
    19:00 +11°C° 0 mm 6 mps 617 mmHg 41%
    20:00 +12°C° 0 mm 5 mps 617 mmHg 44%
    21:00 +10°C° 0 mm 5 mps 617 mmHg 47%
    22:00 +9°C° 0 mm 5 mps 617 mmHg 50%
    23:00 +10°C° 0 mm 4 mps 617 mmHg 52%

    30 September, Saturday

    Time Temperature Precipitation Wind Pressure Humidity
    00:00 +8°C° 0 mm 4 mps 616 mmHg 54%
    01:00 +9°C° 0 mm 3 mps 616 mmHg 56%
    02:00 +8°C° 0 mm 3 mps 616 mmHg 57%
    03:00 +8°C° 0 mm 2 mps 616 mmHg 58%
    04:00 +8°C° 0 mm 2 mps 616 mmHg 60%
    05:00 +8°C° 0 mm 2 mps 616 mmHg 58%
    06:00 +8°C° 0 mm 2 mps 616 mmHg 56%
    07:00 +9°C° 0 mm 2 mps 617 mmHg 55%
    08:00 +10°C° 0 mm 2 mps 617 mmHg 49%
    09:00 +13°C° 0 mm 2 mps 618 mmHg 42%
    10:00 +15°C° 0 mm 2 mps 619 mmHg 36%
    11:00 +16°C° 0 mm 2 mps 619 mmHg 33%
    12:00 +17°C° 0 mm 2 mps 619 mmHg 30%
    13:00 +18°C° 0 mm 2 mps 619 mmHg 26%
    14:00 +18°C° 0 mm 2 mps 618 mmHg 26%
    15:00 +19°C° 0 mm 2 mps 618 mmHg 25%
    16:00 +19°C° 0 mm 2 mps 618 mmHg 24%
    17:00 +18°C° 0 mm 3 mps 618 mmHg 26%
    18:00 +17°C° 0 mm 3 mps 617 mmHg 28%
    19:00 +15°C° 0 mm 4 mps 617 mmHg 31%
    20:00 +14°C° 0 mm 3 mps 617 mmHg 33%
    21:00 +13°C° 0 mm 3 mps 617 mmHg 35%
    22:00 +13°C° 0 mm 2 mps 616 mmHg 37%
    23:00 +13°C° 0 mm 2 mps 616 mmHg 38%

    1 October, Sunday

    Time Temperature Precipitation Wind Pressure Humidity
    00:00 +13°C° 0 mm 1 mps 616 mmHg 39%
    01:00 +12°C° 0 mm 1 mps 615 mmHg 39%
    02:00 +12°C° 0 mm 1 mps 615 mmHg 39%
    03:00 +12°C° 0 mm 1 mps 615 mmHg 39%
    04:00 +12°C° 0 mm 1 mps 615 mmHg 39%
    05:00 +13°C° 0 mm 1 mps 615 mmHg 37%
    06:00 +14°C° 0 mm 1 mps 615 mmHg 35%
    07:00 +14°C° 0 mm 1 mps 616 mmHg 33%
    08:00 +18°C° 0 mm 1 mps 617 mmHg 28%
    09:00 +20°C° 0 mm 1 mps 617 mmHg 24%
    10:00 +21°C° 0 mm 2 mps 618 mmHg 20%
    11:00 +24°C° 0 mm 2 mps 618 mmHg 18%
    12:00 +25°C° 0 mm 3 mps 618 mmHg 16%
    13:00 +26°C° 0 mm 4 mps 618 mmHg 15%
    14:00 +26°C° 0 mm 4 mps 618 mmHg 15%
    15:00 +26°C° 0 mm 4 mps 617 mmHg 15%
    16:00 +26°C° 0 mm 4 mps 617 mmHg 15%
    17:00 +25°C° 0 mm 4 mps 617 mmHg 17%
    18:00 +22°C° 0 mm 3 mps 616 mmHg 19%
    19:00 +21°C° 0 mm 2 mps 616 mmHg 21%
    20:00 +20°C° 0 mm 2 mps 616 mmHg 22%
    21:00 +19°C° 0 mm 2 mps 615 mmHg 24%
    22:00 +18°C° 0 mm 2 mps 615 mmHg 25%
    23:00 +18°C° 0 mm 2 mps 615 mmHg 26%
    Show more